{"data":{"norad_id":56866,"epoch":"2026-05-25T04:09:45.509760Z","epoch_age_seconds":59810,"freshness":"FRESH","line1":"1 56866U 23081W   26145.17344340  .00007485  00000+0  30538-3 0  9994","line2":"2 56866  97.2908 209.3088 0012524  94.7573 265.5096 15.24636400164529","mean_motion":15.246364,"eccentricity":0.0012524,"inclination_deg":97.2908,"raan_deg":209.3088,"arg_perigee_deg":94.7573,"mean_anomaly_deg":265.5096,"bstar":0.00030538,"rev_number":16452,"period_min":94.448748567199,"perigee_km":483.27346546414,"apogee_km":500.48147771257,"semimajor_km":6870.0144715884,"source":"CELESTRAK","updated_at":"2026-05-25T13:37:59.736016Z"}}